Regional Weather Roundup
Issued by NWS

Home | Current Version | Previous Version | Text Only | Print | Product List | Glossary On
Versions: 1 2 3 4 5 6 7 8 9 10 11 12 13 14 15 16 17 18 19 20 21 22 23 24 25 26 27 28 29 30 31 32 33 34 35 36 37 38 39 40 41 42 43 44 45 46 47 48 49 50
234
ASUS43 KOAX 222110
RWRNE

WEATHER ROUNDUP FOR NEBRASKA
NATIONAL WEATHER SERVICE OMAHA NE
400 PM CDT THU JUN 22 2017

NOTES: SATELLITE DATA IS BEING USED TO AUGMENT CLOUD COVER ABOVE
       12000 FEET.
       "FAIR" INDICATES FEW OR NO CLOUDS BELOW 12,000 FEET WITH NO
       SIGNIFICANT WEATHER AND/OR OBSTRUCTIONS TO VISIBILITY.

  * THESE STATIONS DO NOT REPORT WEATHER SUCH AS RAIN...SNOW OR FOG.

NEZ001>004-019>022-054>056-222200-
NEBRASKA PANHANDLE

CITY           SKY/WX    TMP DP  RH WIND       PRES   REMARKS
SCOTTSBLUFF    SUNNY     80  51  36 NE13G22   29.90F
ALLIANCE       MOSUNNY   76  55  48 N10G22    29.92R
CHADRON        SUNNY     78  46  32 N13G24    29.91F
GORDON         FAIR      75  51  42 N9G22     29.91F
KIMBALL        SUNNY     79  50  36 NE15G26   29.94S
SIDNEY         SUNNY     82  54  37 NE21G28   29.91R
$$

NEZ057>060-069>072-079>082-222200-
SOUTHWEST NEBRASKA

CITY           SKY/WX    TMP DP  RH WIND       PRES   REMARKS
NORTH PLATTE   SUNNY     86  57  37 NE20G32   29.79R
IMPERIAL       SUNNY     88  54  31 NE22G31   29.79F
LEXINGTON      PTSUNNY   83  65  53 N20G26    29.74R
MCCOOK         SUNNY     93  64  38 NE23G31   29.71R HX  94
OGALLALA       SUNNY     85  56  36 NE20G28   29.84S
$$

NEZ005>010-023>029-035>040-094-222200-
NORTH CENTRAL NEBRASKA

CITY           SKY/WX    TMP DP  RH WIND       PRES   REMARKS
VALENTINE      CLOUDY    73  44  35 NE9       29.88S
AINSWORTH      CLOUDY    73  54  52 N18G25    29.87R
BROKEN BOW     MOSUNNY   83  60  45 N16G28    29.77R
O`NEILL        CLOUDY    78  61  56 N17       29.80R
ORD            CLOUDY    83  56  39 NE17G28   29.73R
THEDFORD       MOSUNNY   78  57  49 NE16      29.86S
$$

NEZ041-046>049-061>064-073>077-083>087-222200-
SOUTH CENTRAL NEBRASKA

CITY           SKY/WX    TMP DP  RH WIND       PRES   REMARKS
GRAND ISLAND   CLOUDY    88  66  48 N9        29.66R HX  90
AURORA         MOSUNNY   86  63  45 CALM      29.65R
HASTINGS       CLOUDY    91  61  36 MISG      29.67R HX  91
HEBRON         CLOUDY    96  60  29 SW9G17    29.61S HX  95
HOLDREGE       SUNNY     89  60  38 N16G22    29.70R
KEARNEY *      SUNNY     91  63  38 N16       29.69S HX  92
YORK           MOSUNNY   86  66  51 CALM      29.66R
$$

NEZ011>018-030>034-042>045-222200-
NORTHEAST NEBRASKA

CITY           SKY/WX    TMP DP  RH WIND       PRES   REMARKS
NORFOLK        CLOUDY    83  64  52 N16       29.67R
ALBION         CLOUDY    84  62  46 N17G25    29.71R
BLAIR          CLOUDY    88  67  48 S9        29.64F HX  91
FREMONT        CLOUDY    88  67  49 SE7       29.64S HX  91
TEKAMAH        CLOUDY    88  65  46 SE5       29.63F HX  90
WAYNE          CLOUDY    83  65  52 N13G18    29.69R
$$

NEZ050>053-065>068-078-088>093-222200-
SOUTHEAST NEBRASKA

CITY           SKY/WX    TMP DP  RH WIND       PRES   REMARKS
LINCOLN        PTSUNNY   90  66  45 SW10      29.63S HX  92
OMAHA EPPLEY   CLOUDY    89  69  51 S10       29.62S HX  93
BEATRICE       MOSUNNY   90  69  50 S10       29.62S HX  94
FALLS CITY     CLOUDY    89  68  49 S14G23    29.62F HX  93
NEBRASKA CITY  MOSUNNY   87  69  53 S14G22    29.63S HX  91
PLATTSMOUTH    PTSUNNY   90  66  44 S12       29.64R HX  92
$$

NEZ044-045-051>053-067-222200-
OMAHA AREA

CITY           SKY/WX    TMP DP  RH WIND       PRES   REMARKS
OMAHA EPPLEY   CLOUDY    89  69  51 S10       29.62S HX  93
BLAIR          CLOUDY    88  67  48 S9        29.64F HX  91
FREMONT        CLOUDY    88  67  49 SE7       29.64S HX  91
MILLARD        CLOUDY    91  70  49 SW6       29.63S HX  96
OFFUTT AFB     CLOUDY    92  67  44 S13       29.62F HX  95
PLATTSMOUTH    PTSUNNY   90  66  44 S12       29.64R HX  92
WAHOO          FAIR      90  63  40 SW9G16    29.64S HX  90
$$




USA.gov is the U.S. government's official web portal to all federal, state and local government web resources and services.